Theta_e
343 347 345 347 349 350 351 351 352 351 351 351 351 350 350 349 348 349 348 348 348 348 348 348 347 348 348 348 348 348 348 348 348 348 348 349 349 349 348 349 349 349 350 350 349 349 349 349 348 348 347 347 346 345 343 342 341 340 341 342 343 343 344 344 344 344 345 349 350 351 349 348 348 349 350 350 350 351 351 351 354 349 350 351 353
342 347 345 348 349 350 351 351 352 351 351 351 351 350 349 349 349 348 348 348 348 348 347 347 347 347 348 348 348 348 348 348 348 348 348 348 348 348 348 348 348 348 349 348 347 347 347 346 346 346 346 346 344 343 341 340 339 338 337 339 341 342 342 343 343 343 344 345 347 349 350 349 349 349 349 349 349 350 349 350 352 350 350 352 352
345 347 346 348 348 349 351 351 352 351 351 351 350 349 348 348 348 349 349 348 348 347 347 347 347 347 347 348 348 349 348 348 348 347 347 347 347 347 347 347 347 348 347 346 346 345 345 345 345 345 344 342 341 340 339 338 336 335 336 336 338 340 341 342 342 342 342 343 346 348 347 348 349 349 349 349 349 349 348 348 350 350 349 351 351
342 346 346 347 346 348 351 352 351 351 351 350 349 348 348 348 348 349 349 348 348 347 347 347 347 348 348 348 348 348 348 347 347 346 346 346 347 347 346 346 346 346 345 345 344 343 343 343 342 341 340 339 338 337 336 335 334 334 334 334 336 338 340 341 341 341 340 341 342 346 347 348 347 348 349 349 348 348 347 347 348 348 349 350 350
341 345 347 348 350 347 350 351 351 352 351 350 349 349 349 348 348 349 348 348 347 347 347 347 348 348 348 348 349 348 347 346 346 345 344 344 344 344 344 344 345 345 344 344 343 342 341 341 340 339 337 336 335 334 334 333 333 333 333 333 335 337 338 339 340 340 339 340 344 342 342 346 348 347 349 348 348 347 346 346 347 347 347 348 349
341 344 348 347 348 350 348 350 351 351 351 350 349 349 349 348 348 348 348 347 347 346 347 347 348 348 348 348 348 347 346 345 344 343 342 342 341 342 342 341 342 342 341 341 340 340 340 339 338 337 335 334 334 333 332 331 330 331 331 332 332 333 335 336 336 337 339 340 339 342 342 344 345 346 348 348 348 347 346 346 347 347 347 346 347
341 345 347 346 347 347 344 350 351 351 351 350 349 349 349 348 348 348 348 346 347 346 347 347 348 348 348 348 347 346 345 344 343 341 340 339 339 339 339 339 340 340 340 340 339 339 338 337 335 335 335 333 332 331 330 329 329 328 330 330 330 332 332 333 333 334 335 337 342 341 341 341 346 346 347 347 348 347 347 347 347 347 347 346 346
341 345 347 346 347 345 344 350 351 351 351 350 349 349 349 349 348 347 346 347 347 347 347 348 348 347 347 347 346 345 344 343 341 340 338 337 338 338 337 338 338 339 338 338 337 337 336 335 334 333 333 331 330 330 329 328 327 328 328 329 330 331 331 331 331 332 337 335 341 341 340 341 343 346 347 347 347 347 348 348 347 347 347 347 347
341 343 346 347 347 344 344 347 351 351 351 350 350 348 349 349 348 347 346 346 347 347 348 348 347 347 347 346 346 345 343 341 340 339 337 337 337 337 337 337 337 336 336 336 336 335 334 333 333 333 332 330 329 328 328 327 327 327 327 328 329 329 329 329 329 333 334 337 337 340 341 339 344 345 346 346 345 345 345 345 345 345 345 345 345
341 343 345 347 347 342 343 347 351 350 350 350 350 349 349 349 348 347 346 347 346 347 347 347 347 347 346 346 345 344 342 341 340 338 336 336 336 336 335 336 335 335 335 335 335 334 333 332 332 332 330 328 327 326 326 326 325 326 326 326 327 328 328 328 330 334 332 334 338 339 343 343 343 343 343 344 343 343 342 341 342 342 342 343 344
340 341 344 346 350 341 345 348 349 350 350 350 350 349 348 348 348 347 347 347 347 347 348 347 347 347 345 345 344 343 342 340 339 338 336 335 335 335 334 334 334 334 334 334 334 332 331 331 330 330 328 327 326 325 325 325 324 324 324 325 326 326 326 327 331 330 334 336 336 337 339 341 340 342 343 342 342 341 340 340 341 342 341 341 342
339 340 344 346 342 340 344 347 348 350 350 350 350 349 349 348 348 347 347 347 347 347 347 347 346 346 346 345 344 343 341 340 338 336 336 335 335 334 333 332 333 332 333 332 332 332 331 331 330 328 327 325 325 325 324 323 323 322 323 323 324 324 324 327 329 331 334 334 336 338 335 334 335 339 340 341 341 339 339 339 339 339 340 340 340
338 340 344 346 349 339 343 345 347 349 350 350 350 349 349 348 347 347 347 347 347 348 347 347 346 346 345 344 343 342 340 339 337 335 333 332 332 332 332 332 332 332 332 331 331 330 330 330 329 327 326 325 324 323 323 322 322 321 321 322 322 322 322 325 327 330 332 334 335 336 336 337 336 337 337 338 338 338 337 337 338 338 338 338 338
338 340 343 345 347 337 339 343 345 348 349 350 350 349 348 348 347 347 347 347 347 347 347 346 346 345 344 343 342 341 340 338 336 334 333 331 332 332 332 331 331 331 331 331 330 330 329 329 328 327 325 324 323 321 321 321 320 320 319 320 320 320 321 324 327 329 330 332 333 334 334 333 333 334 334 335 335 335 335 336 336 336 336 337 337
337 341 343 343 343 345 334 339 341 344 346 348 348 347 348 348 347 347 347 347 347 347 347 346 346 345 344 342 341 340 339 338 337 334 332 331 331 331 331 331 331 331 330 330 331 331 330 329 327 326 325 324 323 321 321 320 319 318 318 318 318 317 317 322 326 327 328 330 331 332 332 331 332 332 331 331 332 332 332 333 333 334 334 334 335
339 341 342 341 342 343 343 336 336 340 341 344 345 345 346 347 347 347 347 347 347 346 346 345 345 344 343 343 341 339 339 338 337 335 331 330 330 330 330 331 330 330 330 329 331 330 329 329 327 324 323 322 321 321 319 318 317 316 316 316 316 315 317 320 323 324 326 327 329 330 329 329 330 330 330 330 330 330 330 331 332 332 332 333 333
338 341 340 339 341 341 343 344 341 333 335 338 340 342 343 345 345 347 346 346 345 345 345 345 344 344 343 342 342 340 339 338 336 331 330 330 330 330 330 330 330 330 329 331 330 330 329 327 325 323 323 322 320 319 318 316 315 314 313 314 314 314 315 317 321 322 324 326 328 329 329 328 328 329 329 329 329 329 329 329 330 329 330 331 332
337 338 337 337 339 340 341 342 345 344 346 338 334 337 340 342 343 343 343 343 343 343 344 342 342 342 341 339 336 336 335 336 334 333 330 330 330 329 329 329 330 330 330 330 330 329 327 325 324 323 322 321 320 319 317 315 314 312 312 312 312 311 314 313 320 321 322 325 325 328 327 326 327 328 328 328 327 327 328 328 328 328 328 330 330
335 335 335 335 336 338 338 341 342 344 344 345 346 342 334 337 339 340 339 340 340 340 339 340 338 337 335 332 331 330 329 330 330 330 330 330 330 328 330 329 330 330 330 329 328 327 326 325 324 322 321 319 318 317 315 313 312 310 309 308 308 309 308 314 318 320 321 322 324 325 325 327 326 326 326 326 327 327 327 326 327 327 328 328 328
333 334 333 334 336 337 338 338 341 342 343 344 344 344 334 331 336 338 337 338 337 336 336 335 331 328 327 326 324 327 325 328 322 327 326 329 327 326 328 329 329 329 329 328 328 327 325 324 323 322 321 318 317 315 312 311 309 308 306 305 306 305 312 313 316 317 318 319 323 324 323 326 326 326 326 326 326 326 326 326 327 327 327 327 327
331 332 332 332 335 336 337 337 338 339 341 342 343 343 342 330 332 331 331 332 333 332 332 327 322 320 321 320 321 330 330 330 328 328 321 328 322 321 326 329 328 328 327 327 327 325 324 324 323 321 319 317 314 312 310 309 308 306 305 304 304 309 310 311 312 313 316 318 320 321 322 324 324 326 325 325 325 325 325 325 326 326 326 327 326
329 330 331 332 333 335 336 336 337 337 339 340 340 341 343 335 341 341 338 335 329 326 330 334 326 332 322 325 330 329 329 329 329 324 327 327 325 319 321 326 328 327 327 326 326 325 324 323 322 321 319 316 312 309 308 307 306 304 303 304 310 305 307 308 310 312 314 317 319 320 322 324 324 324 324 324 324 324 324 325 325 325 325 325 325
328 329 330 331 332 334 335 335 336 336 337 338 339 339 340 340 341 340 339 333 333 332 334 333 332 332 330 330 329 329 329 329 328 326 326 320 322 318 320 324 327 326 325 325 324 324 323 323 322 320 317 313 310 309 305 303 302 303 303 307 305 304 306 307 308 311 314 316 318 318 321 323 323 323 323 324 324 323 324 324 324 325 324 324 324
326 329 330 332 332 332 334 335 335 336 336 336 338 337 338 339 339 339 338 336 336 334 335 334 333 333 331 330 329 330 329 328 322 318 321 325 323 317 318 320 321 321 320 321 323 323 322 321 319 316 312 309 308 307 306 302 298 299 305 304 303 304 305 305 306 309 312 315 316 316 319 322 322 323 322 324 324 324 324 324 324 324 324 323 323
327 329 331 331 331 332 333 334 335 336 335 335 336 336 337 337 336 336 337 336 334 334 333 333 333 333 332 330 330 329 329 327 327 325 325 324 324 323 323 324 323 322 317 320 319 319 318 316 312 309 306 304 306 305 306 305 304 305 304 304 304 304 305 305 305 306 310 314 314 314 317 321 323 323 323 323 323 323 323 324 323 323 323 322 322
327 326 329 330 331 332 333 333 334 335 335 334 335 335 334 334 334 333 334 335 334 333 333 332 332 331 330 329 329 329 327 326 326 325 324 324 322 321 321 322 322 321 318 318 317 317 315 313 308 303 303 305 306 306 305 304 304 303 303 305 304 304 304 303 304 305 309 312 312 313 315 319 321 322 323 323 323 323 322 323 323 323 323 322 321
324 325 327 329 331 331 332 333 333 334 335 334 333 334 334 334 333 333 333 333 333 332 332 330 330 330 330 329 328 326 325 325 324 323 323 320 320 320 320 321 321 319 317 317 316 316 314 309 304 304 305 305 306 306 305 305 306 305 305 305 305 304 304 304 304 304 308 310 311 311 314 317 321 322 323 323 323 323 323 323 323 322 322 321 321
322 325 325 327 329 330 332 333 333 333 333 334 333 332 333 333 332 331 332 330 331 330 331 328 330 328 329 328 327 326 324 323 323 321 320 319 319 319 320 320 319 319 317 318 316 314 310 305 305 305 305 305 304 304 304 304 304 305 305 305 305 304 304 303 304 304 307 309 311 309 312 315 319 321 322 322 323 323 323 323 322 322 321 320 320
317 321 324 324 327 329 330 331 332 332 333 333 332 332 332 331 332 332 332 328 331 329 329 329 328 327 328 328 327 325 324 323 321 320 320 318 319 319 320 319 319 318 316 314 313 309 305 304 304 304 304 303 303 303 302 302 303 303 303 304 304 304 303 303 303 304 306 308 309 307 310 313 317 319 320 322 322 322 322 322 322 321 320 319 320
317 319 322 324 325 328 328 328 330 331 332 332 332 331 332 331 331 331 331 329 330 330 330 328 328 328 327 327 327 326 325 323 320 319 318 318 318 320 319 319 317 315 314 311 309 306 304 304 304 303 302 302 301 302 301 302 302 303 303 304 303 302 303 302 302 302 304 307 308 307 306 310 314 317 319 320 320 321 321 321 321 321 320 319 319
318 317 319 323 325 324 327 328 329 329 331 330 331 330 331 331 330 330 331 330 329 330 330 329 328 328 326 327 326 326 325 323 320 318 318 317 317 317 317 316 314 313 311 309 307 305 304 303 303 302 302 302 301 301 300 301 302 301 302 303 302 302 302 302 302 303 302 304 306 307 306 307 310 313 315 317 318 320 320 320 320 320 320 319 319
317 317 318 321 323 323 325 326 327 328 328 329 329 330 330 330 330 329 329 330 330 329 328 328 327 327 326 326 325 325 324 322 320 318 316 315 315 315 314 313 312 311 309 307 305 304 304 304 305 304 304 302 301 300 302 300 300 300 302 302 302 301 301 301 301 301 302 303 303 305 306 307 307 309 312 314 317 318 318 319 319 318 318 319 318
317 318 318 319 320 322 322 324 325 327 326 327 328 328 329 329 329 329 329 330 328 327 327 327 327 327 326 324 324 324 323 321 318 317 315 315 314 313 312 312 311 310 308 307 306 305 304 304 304 304 302 302 301 300 303 301 300 300 300 300 300 301 301 301 301 301 301 301 300 300 302 305 307 306 307 310 312 313 314 315 316 317 317 317 317
317 318 318 318 319 322 322 323 324 325 326 326 327 327 327 327 327 328 328 328 328 327 326 326 326 326 325 323 322 323 322 320 318 316 314 313 312 311 311 310 310 309 307 306 303 303 302 302 302 301 300 300 299 300 298 299 299 299 299 300 300 300 300 301 300 300 301 301 300 301 299 300 304 306 305 305 307 310 311 312 313 314 315 316 316
316 316 317 317 317 319 321 320 323 324 325 325 325 326 327 326 326 326 326 327 327 326 325 325 325 325 324 321 321 321 320 319 317 314 313 312 310 309 309 309 308 307 305 305 303 301 301 301 299 298 299 299 300 299 298 299 299 298 300 299 300 300 300 300 300 301 299 300 299 300 300 299 299 303 305 303 302 303 307 309 311 312 313 314 315
313 315 316 317 316 318 320 320 321 322 323 324 325 326 326 326 326 321 326 327 325 325 325 325 324 324 323 321 320 320 318 318 316 314 312 310 309 308 308 308 308 305 304 303 302 300 300 301 299 299 297 298 298 298 298 298 299 298 300 298 299 299 298 299 300 299 300 299 299 299 299 299 300 299 301 301 301 300 302 305 307 309 310 310 312
312 312 314 315 315 316 317 318 319 320 322 323 324 325 325 324 324 325 325 325 324 324 324 324 323 323 322 321 320 319 316 316 315 313 311 310 308 307 306 307 306 304 303 302 300 300 300 301 298 299 299 297 298 299 297 299 299 299 299 299 300 298 299 299 299 299 300 298 298 298 299 301 301 299 298 299 298 297 298 300 302 304 305 307 308
311 312 312 313 314 315 316 317 318 319 320 322 322 323 324 324 324 324 323 323 324 323 323 322 321 321 321 320 319 317 315 315 314 312 310 309 308 307 306 306 305 303 302 301 300 300 301 300 298 299 299 298 298 297 296 298 299 299 298 299 299 297 299 299 299 298 297 298 298 298 298 298 297 297 299 300 298 295 295 296 298 299 300 303 306
311 310 311 312 313 314 314 316 316 316 318 319 321 322 322 323 323 323 323 322 322 322 322 321 320 320 319 319 317 316 314 314 313 311 310 308 307 306 305 305 304 302 301 301 300 300 300 300 299 298 300 299 298 299 297 298 299 298 297 297 297 298 299 299 299 297 296 299 297 298 300 296 297 298 298 299 297 297 296 294 294 295 296 299 302
310 309 310 310 311 312 313 314 314 314 316 317 319 319 320 319 319 320 319 319 320 319 320 320 320 319 318 318 316 314 313 313 312 310 309 307 306 305 305 305 303 301 301 300 298 298 299 299 298 298 298 299 299 299 298 298 297 297 296 296 297 297 297 297 297 297 297 298 298 297 296 297 297 297 298 298 297 298 297 297 297 296 295 296 298
310 309 308 309 309 310 311 311 313 312 313 313 315 316 316 317 317 317 316 318 318 318 318 319 318 318 317 317 315 313 313 312 311 310 308 306 305 304 304 304 302 301 300 300 300 300 300 299 299 298 298 297 298 299 299 298 295 293 294 295 294 295 296 295 296 297 297 297 297 295 296 296 296 296 297 297 297 297 297 297 296 296 295 294 293
308 308 308 308 309 309 309 310 312 311 311 312 313 315 316 316 316 316 316 316 316 315 315 317 317 317 316 316 315 312 312 311 309 309 307 306 305 303 303 303 301 300 300 301 300 300 300 299 299 297 298 296 295 298 298 296 293 291 290 291 292 293 294 293 294 294 296 296 296 295 295 295 295 295 296 296 296 296 296 296 297 296 296 296 294
309 308 309 309 308 309 310 310 310 311 310 310 311 312 314 316 315 315 315 315 317 317 316 316 316 315 315 315 314 312 312 310 308 308 307 306 304 303 302 302 301 300 299 299 299 299 299 299 299 296 295 296 295 298 297 296 292 293 294 292 289 289 292 291 293 293 294 295 295 295 296 295 296 296 295 295 294 295 296 296 296 296 295 296 296
305 306 306 306 307 307 308 309 309 310 310 310 309 311 312 314 315 315 315 315 314 315 315 314 314 313 313 313 312 311 311 309 308 307 306 305 304 302 302 302 300 300 299 298 299 299 299 298 298 297 296 293 293 295 297 296 295 293 289 290 292 291 289 289 289 292 294 294 294 294 295 295 296 296 295 294 294 294 294 295 295 295 295 295 295
304 304 305 305 305 306 307 308 308 309 309 309 309 309 310 311 312 313 311 310 311 309 309 309 310 310 309 309 309 310 310 308 308 306 305 304 304 302 302 301 300 299 299 298 298 299 299 298 298 296 296 294 293 295 295 296 297 297 296 292 293 290 290 296 291 291 292 292 293 294 295 295 295 295 294 294 295 295 294 294 294 294 294 294 295
303 303 304 304 304 305 306 306 307 308 308 309 309 308 307 307 307 307 305 305 304 305 305 305 306 306 306 309 309 308 308 308 307 306 305 303 303 303 302 301 300 299 298 298 298 299 299 298 298 297 296 296 295 295 293 294 296 300 303 304 302 293 293 294 292 288 291 293 293 293 294 294 295 294 293 294 295 294 293 293 294 293 293 293 293
303 303 304 303 304 304 305 305 306 306 308 307 308 307 306 306 306 306 306 305 304 306 307 308 307 308 308 307 307 307 307 306 306 306 305 303 303 303 302 301 300 299 298 297 297 298 299 298 298 297 297 296 297 294 294 293 293 296 299 300 297 296 298 294 291 293 287 290 291 291 292 294 294 293 293 293 294 293 293 294 293 293 293 293 293
302 303 303 303 303 303 303 304 304 305 306 307 306 306 305 305 305 305 304 304 304 304 306 306 307 307 307 306 306 306 305 305 305 305 305 303 302 302 302 301 300 299 298 297 296 298 299 299 298 297 297 296 296 295 295 293 290 291 294 297 296 299 298 298 304 296 293 287 287 292 293 293 293 293 293 293 294 293 293 292 293 293 292 292 293
301 301 301 302 302 302 303 302 302 303 303 305 304 305 305 304 304 304 304 305 305 304 305 305 304 305 304 304 304 304 304 304 304 304 304 303 302 301 301 301 300 299 298 298 297 298 298 298 297 297 296 296 296 296 296 294 292 291 292 293 295 294 295 296 300 299 297 291 290 288 288 292 293 292 292 293 293 294 293 293 293 293 292 292 292
300 301 301 301 301 301 301 301 300 301 301 302 303 304 304 304 303 303 303 303 304 304 304 303 304 304 302 302 302 302 302 301 302 303 303 303 302 301 301 300 300 299 298 298 297 297 298 298 298 296 296 296 296 296 296 296 294 293 293 292 291 292 293 292 293 293 294 299 293 288 290 288 286 289 292 292 292 293 293 293 293 292 292 292 291
299 299 300 300 300 300 300 299 299 300 300 300 301 302 303 303 303 303 302 302 303 303 302 302 302 303 302 302 301 301 301 301 301 301 302 302 302 301 300 300 300 299 298 298 297 297 298 298 298 297 296 295 295 295 296 297 295 293 294 292 292 292 291 290 290 291 292 291 291 293 292 290 290 289 290 292 292 293 292 292 292 291 291 292 291
Wind_Speed
7 10 13 17 15 16 17 16 16 16 15 15 14 14 13 12 12 12 12 12 13 13 12 11 11 10 10 10 9 9 9 9 8 8 8 8 8 8 7 9 9 10 11 11 10 10 10 10 10 10 9 8 9 9 10 9 10 9 9 8 9 9 9 10 10 10 9 10 11 11 10 10 10 10 11 11 11 11 12 9 5 7 8 9 11
12 11 12 15 16 16 17 16 16 16 16 15 15 14 13 13 12 13 12 12 12 12 11 11 10 10 10 10 10 9 9 9 9 9 9 9 9 8 9 10 10 10 10 11 10 10 9 9 9 8 8 8 8 8 9 9 9 9 8 8 8 8 8 8 8 8 8 7 8 8 9 10 10 10 11 11 11 13 12 13 8 7 7 11 12
13 11 12 16 15 15 16 17 16 16 16 15 15 14 13 13 13 12 12 12 12 11 11 10 10 10 10 10 10 10 10 10 10 9 9 9 9 9 9 10 10 10 10 9 9 9 9 9 8 8 8 8 8 7 8 8 8 8 8 7 7 7 7 6 6 6 5 4 5 9 9 9 9 10 10 11 12 12 12 12 11 10 8 12 11
13 10 12 15 13 14 15 15 17 16 15 15 15 14 14 14 13 13 13 12 12 11 10 10 10 10 10 10 10 10 11 10 10 10 9 10 9 10 10 9 9 9 9 8 7 7 8 8 8 8 8 7 7 7 7 7 8 7 7 7 6 6 5 5 5 4 2 1 2 7 6 6 7 9 10 11 12 12 12 11 11 12 12 12 13
12 10 12 14 13 13 13 14 16 16 16 15 15 14 14 14 13 13 12 12 12 11 10 10 10 9 10 10 11 10 11 10 10 10 9 8 8 7 8 7 7 8 7 7 6 6 6 8 8 8 7 7 6 6 7 7 8 7 7 7 6 6 5 5 4 3 2 4 4 8 4 5 6 8 9 11 11 11 10 10 10 11 11 12 12
11 10 11 13 13 14 11 13 16 17 16 16 16 14 14 14 13 13 13 12 11 11 10 10 10 10 10 10 11 11 11 10 9 8 8 7 7 6 5 4 5 5 5 5 5 6 6 7 7 7 8 7 7 7 7 7 7 7 7 7 6 6 6 6 6 5 5 6 7 1 4 5 6 6 8 9 10 9 10 10 10 9 9 10 12
11 9 11 13 12 15 11 12 17 16 17 17 16 15 14 13 13 13 12 12 11 11 11 11 11 11 10 11 11 11 10 9 8 8 7 6 6 6 4 4 4 4 5 6 6 6 6 6 7 7 8 7 7 7 7 7 6 7 7 7 6 6 6 6 5 6 7 6 4 2 2 4 7 5 8 8 9 9 9 10 10 10 10 10 12
9 8 10 12 12 15 12 11 16 17 17 17 16 16 15 14 13 13 12 12 11 11 10 11 11 10 11 12 11 11 9 9 8 6 5 5 4 4 3 3 4 4 3 5 6 6 6 7 7 7 8 8 8 7 7 7 7 7 7 7 7 6 6 5 5 5 8 6 1 1 3 4 6 5 8 8 8 9 10 12 11 11 11 11 7
9 9 10 12 11 18 15 11 14 17 18 17 15 15 15 14 13 13 12 12 11 11 11 11 10 11 12 12 12 10 9 8 6 5 5 4 4 3 3 3 3 2 2 4 6 6 6 7 7 8 8 8 8 8 7 7 7 7 7 7 7 7 6 6 5 6 6 2 1 2 0 3 7 7 10 11 10 12 10 8 11 11 12 11 10
9 10 10 10 10 19 16 13 13 18 17 15 14 15 15 15 14 14 13 12 12 11 11 11 11 12 12 12 10 10 9 7 7 5 5 3 3 3 3 3 2 3 3 4 6 6 6 6 7 7 8 8 8 8 7 7 7 7 7 8 7 7 6 6 7 7 2 1 2 1 2 6 9 8 9 10 10 10 11 12 10 9 7 10 11
9 10 9 10 11 19 16 14 11 15 15 15 13 14 15 15 14 15 14 13 12 12 12 11 11 12 12 11 11 9 8 7 7 7 5 4 4 4 4 3 3 4 4 5 5 6 6 6 6 7 8 8 8 8 8 8 8 7 7 8 8 7 7 7 9 1 3 2 2 3 1 4 8 7 10 9 10 9 10 10 8 7 8 9 10
9 10 9 8 14 16 16 15 11 13 14 14 14 15 15 15 14 14 14 13 13 12 12 12 12 12 13 12 10 10 8 8 8 6 6 6 6 6 5 4 5 5 4 5 5 6 6 6 7 7 8 8 7 8 8 8 8 8 7 8 8 7 7 8 4 3 3 3 4 2 2 2 6 8 8 8 7 6 7 6 7 7 7 8 10
10 10 9 9 10 12 15 13 11 12 12 13 15 17 15 15 15 14 14 14 14 13 13 13 13 13 13 12 11 10 9 7 7 6 4 5 5 5 5 5 6 5 5 6 6 6 6 7 7 8 8 8 8 7 7 8 8 8 8 8 7 7 6 9 2 3 4 4 3 2 1 8 6 7 6 6 6 6 6 6 6 6 6 7 9
10 10 9 9 8 11 11 12 11 11 12 13 16 15 15 16 15 15 14 14 13 14 14 14 14 13 12 11 10 9 9 10 8 6 5 4 6 6 6 6 6 6 5 6 6 6 7 7 7 8 8 8 8 7 7 8 7 7 7 7 7 5 6 3 4 4 4 4 4 3 2 4 7 7 4 4 4 5 5 5 6 6 6 7 8
10 10 9 9 9 10 10 11 10 10 11 13 14 13 14 15 14 14 14 13 14 14 14 13 12 12 11 11 11 9 10 10 10 11 8 7 7 7 7 7 7 6 6 6 7 7 7 8 8 8 8 8 8 8 8 7 7 7 7 7 6 6 8 1 2 3 4 3 3 4 4 6 6 8 4 2 2 3 4 5 5 5 5 7 8
8 9 9 8 8 9 9 8 9 9 10 13 13 13 13 14 13 13 13 13 13 14 12 11 10 8 9 9 10 9 10 11 11 8 6 6 7 8 8 8 8 7 7 7 8 8 8 8 8 8 8 8 8 8 8 7 8 7 7 7 6 6 6 7 2 3 3 3 3 4 5 6 7 5 4 4 4 3 3 4 5 5 4 6 8
7 8 8 8 8 9 12 12 9 8 9 12 13 12 12 13 13 14 14 13 12 12 10 10 9 8 9 9 7 8 9 10 7 7 6 7 9 9 9 9 9 8 8 8 8 8 9 9 8 8 8 8 8 8 7 8 8 8 7 6 6 6 6 8 3 2 3 3 3 3 4 4 5 4 4 4 5 4 4 4 4 4 4 5 8
7 8 8 8 9 10 12 14 13 9 11 9 12 12 12 13 14 14 13 13 12 12 10 10 9 8 8 7 6 8 9 6 8 7 8 8 9 9 9 9 9 9 9 10 9 9 9 9 8 9 9 8 8 8 8 8 8 7 7 6 6 5 5 7 3 3 3 2 3 3 5 5 4 4 5 5 4 4 4 4 4 3 3 6 7
7 9 9 9 10 11 13 13 15 14 15 13 11 11 13 13 14 13 12 11 12 11 10 10 9 8 7 7 7 9 8 8 8 8 7 7 6 6 7 10 10 10 10 10 10 9 9 9 9 9 9 8 8 8 8 8 8 7 7 6 5 3 3 3 3 3 3 2 2 4 5 7 3 3 4 5 5 5 4 4 4 4 5 6 6
7 8 9 10 10 13 12 12 13 14 14 12 13 14 12 14 13 14 13 11 11 11 10 9 9 9 9 9 9 8 8 7 9 7 7 7 6 7 7 9 10 11 10 10 10 9 9 9 9 9 9 9 9 8 8 8 7 7 6 4 2 3 2 2 3 2 2 3 2 5 6 6 3 4 4 4 4 4 4 3 4 5 6 6 6
6 10 10 10 12 15 15 12 14 15 16 15 12 14 13 14 11 13 13 12 10 11 10 9 9 8 9 9 10 8 7 6 6 7 7 7 7 7 7 9 11 10 10 10 10 10 10 10 10 10 10 10 9 9 7 7 7 6 5 2 2 2 3 2 2 2 2 2 3 4 7 4 3 4 4 4 3 4 3 3 4 5 6 6 6
8 8 11 12 13 14 15 14 12 16 15 13 11 11 9 14 14 11 10 10 10 10 9 9 9 8 10 9 8 8 7 7 8 8 8 9 7 8 7 7 9 9 8 10 10 10 10 10 10 10 11 11 11 5 5 5 5 5 3 2 3 2 2 2 2 3 2 2 4 5 7 2 2 4 3 4 4 3 3 4 4 4 5 6 6
9 9 10 14 12 12 14 16 14 14 16 15 10 11 11 10 15 13 10 11 10 11 11 11 10 10 10 9 9 8 8 8 7 8 7 9 10 9 7 5 8 8 7 9 10 10 10 10 11 10 10 11 5 4 4 4 3 2 3 4 2 2 3 2 2 2 2 3 4 8 6 2 2 3 4 4 4 4 4 4 5 5 5 5 6
11 10 9 10 12 12 14 15 15 15 15 14 11 11 12 10 12 12 11 11 10 9 12 12 11 11 10 10 9 9 9 8 7 11 7 8 7 9 7 6 7 7 8 6 8 9 10 9 9 9 7 5 4 4 4 4 4 5 4 3 3 3 3 3 2 2 3 3 4 7 8 2 3 4 4 5 4 4 4 5 5 6 6 6 5
9 8 8 10 14 14 12 14 14 14 15 13 12 12 11 10 10 12 12 11 11 11 12 15 13 12 12 9 10 9 8 8 7 7 8 8 8 9 7 7 8 7 8 7 7 7 7 6 5 5 5 5 4 3 4 4 4 4 3 3 3 3 3 2 2 3 3 4 3 6 7 4 4 5 4 5 5 5 5 5 5 6 6 5 5
7 9 11 11 14 15 14 12 15 15 15 14 14 11 10 12 12 12 12 11 10 11 11 13 13 12 11 11 10 10 9 9 9 9 10 9 9 9 9 9 9 8 9 7 7 7 6 6 5 6 5 4 4 3 3 3 3 3 3 2 3 3 3 3 2 3 3 4 3 6 6 8 2 4 4 5 5 5 4 5 6 6 6 5 5
8 10 10 10 11 14 15 13 13 14 16 15 13 12 13 13 12 12 12 12 11 11 10 12 12 12 11 11 10 11 11 9 8 9 10 9 9 9 9 9 9 8 9 7 8 7 6 6 6 6 4 3 3 2 2 1 2 2 2 2 2 2 3 3 3 3 3 4 4 7 7 8 2 4 5 5 5 5 5 5 5 6 5 5 5
9 10 10 9 10 15 16 15 13 13 13 15 14 13 13 14 13 10 10 11 10 12 12 12 10 12 12 13 11 11 10 9 9 10 10 9 9 9 9 9 9 8 9 7 7 6 6 5 5 5 4 3 3 3 3 2 2 2 2 2 2 2 2 2 3 3 3 4 4 6 8 8 4 3 4 5 4 5 5 5 6 6 6 5 5
11 11 9 11 12 12 15 16 14 15 13 13 14 12 12 13 12 13 13 11 10 12 11 11 12 12 13 13 12 12 9 9 9 9 9 9 8 9 9 9 8 8 8 7 7 6 6 6 5 5 5 4 4 3 3 3 2 2 2 2 2 2 2 2 3 2 2 3 4 4 8 10 5 4 4 4 4 4 5 4 5 6 6 5 5
13 11 10 10 10 12 15 17 16 14 14 13 13 13 13 13 13 14 14 10 11 11 12 12 12 11 12 15 13 11 10 10 9 9 9 9 9 9 8 8 8 7 7 7 7 6 6 5 5 5 5 5 4 4 4 3 2 2 2 2 2 2 2 2 3 2 2 2 4 4 7 9 9 6 5 5 4 3 4 5 5 5 6 5 5
11 12 11 10 10 12 13 15 16 14 13 13 13 14 14 13 12 12 12 12 12 11 11 13 12 11 13 14 11 11 9 9 9 9 9 9 8 8 8 7 7 7 7 6 6 6 5 5 6 6 5 5 4 4 4 4 3 2 2 2 2 2 2 2 2 2 3 3 3 4 4 8 9 10 6 6 5 4 4 4 5 5 4 5 5
11 12 11 10 10 14 14 15 15 15 14 15 13 14 14 13 12 12 12 12 11 11 12 14 11 13 13 11 11 11 10 9 10 9 9 9 9 8 8 8 7 6 6 6 5 5 5 4 5 4 4 4 4 4 3 4 3 3 3 2 1 2 2 2 2 3 2 3 3 4 3 3 7 9 10 5 5 6 5 6 6 4 4 4 5
9 12 11 11 12 12 13 15 15 15 17 16 14 13 13 13 13 12 12 11 12 12 13 14 13 12 10 11 11 12 11 10 9 10 9 8 8 8 8 8 7 6 6 6 6 4 4 4 4 3 4 3 4 4 2 3 3 3 3 3 2 2 2 2 2 3 3 3 3 3 4 4 4 6 9 9 6 5 6 6 6 5 5 4 4
8 8 11 12 11 8 9 10 13 15 16 15 13 12 12 12 11 11 11 11 11 11 12 12 13 10 10 11 12 12 11 11 10 10 9 9 8 8 8 7 7 6 6 6 6 5 5 5 5 4 5 4 4 4 4 3 3 3 3 3 2 3 2 2 2 3 3 2 2 2 3 4 4 3 4 8 10 6 6 6 6 6 6 4 4
8 8 10 12 13 10 9 9 11 15 14 14 14 13 12 11 11 11 11 12 11 12 12 14 13 10 10 10 12 12 12 12 11 10 10 9 9 8 9 8 7 7 7 6 6 6 5 6 6 6 5 4 4 4 4 3 3 4 3 3 2 2 2 2 3 3 3 2 2 2 3 3 3 3 4 3 5 9 7 6 5 5 5 5 5
11 9 9 9 12 12 11 10 11 14 13 14 13 13 11 11 10 10 10 12 10 10 10 10 10 9 10 9 12 12 12 13 12 10 10 10 9 9 9 8 9 7 7 7 7 7 6 6 6 6 6 5 5 5 4 4 4 4 3 3 2 3 2 2 3 3 2 3 2 3 3 3 3 4 4 3 4 5 7 7 6 6 6 5 4
10 9 8 8 9 11 10 11 11 12 12 12 12 12 10 10 11 10 10 10 10 10 9 8 9 9 9 9 10 11 12 13 12 11 9 10 9 9 9 9 9 8 8 8 8 7 7 6 6 6 5 6 6 6 5 4 4 4 3 2 2 2 2 2 4 3 2 3 3 3 3 2 2 4 3 2 4 4 5 6 6 7 7 5 4
7 8 8 8 8 7 8 8 8 9 10 10 10 10 9 8 8 8 9 9 9 9 8 9 9 8 9 10 10 11 11 13 12 11 9 9 9 9 8 10 9 8 8 8 9 8 8 8 7 7 6 6 6 7 6 5 4 4 4 3 2 2 2 2 3 3 3 3 3 3 3 3 3 3 2 2 3 4 4 4 6 6 6 5 3
6 7 6 6 6 5 5 5 7 7 9 9 9 9 9 9 8 8 8 10 9 9 10 10 9 9 10 11 11 11 11 13 12 11 10 9 9 9 8 9 9 9 8 8 9 9 8 8 8 8 6 6 6 6 7 5 5 4 4 3 3 2 2 2 2 3 3 3 3 4 2 4 4 3 3 2 2 3 4 4 4 3 3 4 4
5 5 5 4 4 5 4 4 6 7 7 7 7 8 8 9 9 8 9 9 10 9 10 10 9 10 11 12 11 11 12 12 12 11 11 10 9 9 8 8 8 8 8 8 9 8 10 11 10 10 9 6 5 6 7 7 6 5 4 3 2 3 2 2 3 3 3 3 3 4 4 4 4 4 3 3 3 3 3 3 2 3 4 3 4
4 3 3 2 3 4 4 6 5 6 6 7 7 7 8 8 8 10 10 9 9 9 9 10 10 10 11 11 10 10 11 12 12 12 11 11 10 9 9 8 8 8 8 8 8 9 9 9 8 8 10 7 5 6 7 7 8 5 4 4 3 3 3 2 4 4 4 4 4 4 4 4 4 4 4 3 3 3 3 3 3 3 4 4 3
8 7 6 5 3 3 4 4 4 5 7 7 6 7 7 7 7 7 7 7 7 8 9 8 9 8 9 9 8 8 10 10 11 12 11 12 11 10 10 9 10 9 8 8 9 8 9 9 8 7 7 9 7 8 8 9 6 7 7 5 4 4 5 5 5 6 5 5 5 5 4 5 5 5 5 3 3 4 3 3 2 2 2 3 4
10 11 10 8 5 3 2 3 3 4 6 7 6 7 7 7 7 6 6 6 6 6 7 7 7 8 7 7 7 6 8 8 9 10 10 11 11 10 9 8 10 9 9 9 10 10 10 12 11 9 8 7 6 7 9 11 7 7 6 5 5 5 4 4 6 7 7 6 5 5 5 5 6 5 4 4 4 4 3 3 3 3 3 2 2
12 12 12 11 8 7 6 4 3 3 4 5 6 6 5 5 5 6 4 5 4 4 5 5 6 6 7 6 6 6 7 7 8 9 8 9 10 10 9 8 10 10 10 10 11 11 11 11 11 12 10 9 9 7 9 11 6 10 8 7 5 5 4 8 8 7 8 8 7 7 6 6 6 5 4 5 4 4 4 3 4 3 3 3 3
12 12 11 11 8 10 9 6 4 3 3 3 6 5 4 4 4 3 1 1 3 3 3 5 7 6 7 8 8 9 9 9 9 10 9 9 10 10 9 8 9 10 9 10 10 11 12 12 14 12 13 12 11 6 9 11 10 9 6 5 3 4 7 2 9 5 7 7 8 7 7 6 7 6 5 5 4 4 4 4 4 4 4 3 3
12 11 11 11 11 10 11 9 6 4 2 2 3 4 5 5 5 5 5 5 6 6 8 7 6 8 8 7 8 9 10 10 10 10 11 11 11 11 10 9 9 9 10 10 9 9 12 13 13 13 13 13 11 7 8 10 11 7 5 2 0 2 5 5 8 3 5 6 6 7 6 7 6 6 6 5 5 4 4 5 5 5 5 4 4
12 11 10 11 12 11 11 10 7 6 4 3 1 3 4 4 6 6 5 6 6 6 6 6 7 6 6 7 7 8 9 10 10 10 10 11 11 11 12 12 10 10 11 11 11 12 12 13 11 13 12 12 10 11 12 9 7 7 8 4 2 3 2 7 5 6 4 4 6 7 7 7 6 7 6 6 6 5 5 4 5 5 5 4 4
12 12 12 12 14 13 12 11 8 7 6 4 1 2 2 3 4 5 5 6 6 7 7 6 5 5 5 5 6 6 8 9 10 10 10 11 11 10 11 10 10 10 11 12 13 12 9 11 13 15 12 12 14 12 11 11 12 11 12 4 3 1 2 2 2 4 4 6 6 5 5 7 7 7 7 7 7 7 5 5 5 5 5 5 5
13 14 14 13 12 12 12 12 11 10 9 7 4 1 1 2 3 3 4 4 5 6 6 6 5 4 6 5 6 6 6 8 10 10 10 11 10 12 11 11 11 10 11 9 12 12 13 12 14 14 15 14 13 12 10 11 13 12 11 9 6 6 4 3 2 0 3 5 5 9 8 6 6 7 8 7 7 6 6 5 5 5 5 5 5
12 14 13 12 12 12 13 13 13 10 9 10 8 5 3 2 3 3 4 4 4 5 5 6 6 5 6 6 6 6 6 7 8 10 10 11 11 11 11 12 13 12 11 12 13 14 13 13 15 16 16 15 12 13 14 10 13 12 13 12 12 7 5 4 3 4 4 4 3 9 8 11 10 10 9 9 9 7 6 5 5 5 4 5 5
14 14 13 12 12 13 13 14 14 11 11 11 10 8 5 3 3 3 4 5 6 6 6 6 6 6 6 6 6 6 6 6 7 8 10 10 11 11 11 11 11 11 11 12 14 14 13 12 13 15 16 16 14 15 14 11 10 13 12 12 14 14 14 12 11 8 7 6 4 6 7 10 12 7 9 10 9 8 7 6 6 6 5 5 5
Wind_Direction
170 149 147 147 159 168 169 172 172 170 169 171 171 170 167 163 162 167 164 160 160 159 158 158 155 154 153 153 147 144 137 133 128 122 116 117 114 116 114 112 113 116 113 110 107 108 110 107 99 94 95 81 77 75 74 73 72 75 78 77 73 72 72 70 69 77 74 73 76 78 81 75 71 67 65 60 55 44 34 32 27 84 69 65 65
160 149 149 154 160 168 170 172 173 172 171 171 172 171 168 166 167 169 167 166 164 163 163 162 161 160 159 156 151 147 141 135 132 127 123 117 115 118 118 118 111 109 110 110 108 102 99 92 95 97 93 83 75 72 71 69 66 65 67 72 73 74 73 70 73 73 83 91 90 78 66 82 78 73 69 65 61 52 40 35 45 71 71 67 65
150 151 151 155 162 168 170 171 175 173 173 171 172 171 171 171 170 170 170 170 170 167 167 168 169 166 164 159 154 149 144 137 125 116 112 112 110 108 107 108 104 100 98 96 97 101 102 99 97 92 85 79 76 73 69 70 68 64 63 63 64 67 69 73 69 71 80 95 117 110 92 73 79 81 76 72 68 62 53 47 47 71 70 67 66
152 153 151 152 163 171 169 171 175 173 173 174 172 172 173 172 171 173 173 174 174 171 173 175 173 173 168 166 159 151 141 135 125 118 112 104 102 104 108 113 115 102 102 107 110 108 103 103 99 93 88 85 83 78 76 71 71 69 64 61 61 59 60 61 62 68 44 76 215 164 122 107 89 87 86 77 73 69 66 62 64 68 73 69 65
157 153 149 156 166 173 175 172 174 171 175 174 174 173 175 174 174 175 176 177 178 178 178 183 180 180 176 168 154 154 143 135 126 121 117 112 102 97 98 102 107 111 110 112 112 110 106 104 103 99 96 93 84 78 76 75 70 67 66 60 56 54 45 32 24 23 351 306 277 253 131 109 96 88 91 86 78 76 75 72 69 76 78 75 67
161 157 150 161 167 171 181 175 175 175 177 175 175 174 177 177 176 178 178 180 184 182 184 187 187 186 180 162 160 154 147 136 133 131 121 128 123 104 102 100 109 120 127 122 120 116 109 104 105 104 101 98 93 87 81 76 71 69 63 60 54 49 42 27 7 349 324 290 286 273 102 121 102 95 87 91 89 84 80 74 71 75 73 86 81
161 158 156 164 170 172 184 179 179 179 177 177 176 175 176 179 180 180 183 185 188 186 189 191 192 188 172 165 162 155 147 143 135 139 141 137 137 127 128 124 122 122 125 117 121 115 110 105 103 104 101 96 94 89 84 79 75 68 70 64 56 49 43 31 11 336 309 295 241 128 110 92 92 100 92 87 86 84 81 78 71 68 60 70 72
162 165 161 167 176 162 181 184 182 181 180 179 177 177 178 179 181 185 188 189 192 188 192 196 196 184 173 171 162 157 152 141 143 144 143 148 141 149 146 146 131 127 126 123 118 114 110 106 103 102 100 97 93 91 87 81 75 70 67 67 60 49 39 27 359 322 296 267 339 302 105 119 113 100 79 83 81 80 84 82 72 66 60 58 71
168 173 168 167 177 150 175 189 186 184 184 181 179 180 182 180 180 184 190 190 194 191 193 197 191 181 172 169 169 157 156 153 145 151 155 156 150 162 158 158 163 155 154 126 117 113 111 111 106 104 101 97 92 90 87 82 76 72 64 61 57 50 33 10 342 309 268 327 229 71 308 112 99 92 83 77 70 57 57 83 95 78 56 51 62
170 178 174 168 172 152 166 186 191 187 185 183 180 183 184 182 182 185 188 191 195 192 193 194 182 175 175 169 169 159 154 163 170 146 170 176 187 182 188 173 190 182 158 132 120 117 115 112 112 105 101 99 95 90 89 85 81 73 66 57 55 47 30 359 326 289 298 187 68 84 24 348 99 86 86 79 72 55 61 58 56 57 64 65 65
170 176 178 177 151 156 161 179 196 190 189 185 185 184 187 186 185 188 189 191 191 192 193 189 183 174 172 171 166 165 169 157 162 152 163 199 216 212 206 212 200 198 171 137 131 128 125 121 115 111 102 99 97 94 90 90 85 78 69 62 55 45 24 353 309 77 19 36 48 91 69 348 86 89 89 85 84 70 67 62 63 72 71 73 75
176 176 175 172 130 157 164 178 194 194 191 185 186 187 189 184 185 189 188 191 191 192 188 181 178 175 174 171 172 172 171 170 165 169 191 205 210 220 218 210 207 197 170 149 141 131 126 122 116 113 106 102 98 95 93 92 87 81 74 65 55 47 18 347 329 76 59 61 41 357 138 212 88 97 89 82 78 79 65 63 63 65 69 70 70
177 178 174 169 140 149 167 177 192 194 193 185 188 191 191 189 188 191 187 189 192 189 184 178 178 179 174 174 173 177 179 173 164 174 173 199 219 227 217 207 203 195 169 153 145 141 135 129 123 117 113 107 101 98 94 90 87 82 76 69 59 44 23 351 67 66 65 52 60 50 43 86 88 72 86 73 67 61 53 55 55 50 55 62 66
175 177 180 181 153 150 164 180 192 194 192 186 189 192 191 191 189 191 190 189 190 189 183 177 181 181 185 183 181 188 174 155 166 170 174 188 212 212 208 207 201 190 169 159 151 148 142 133 124 119 114 110 106 103 100 95 91 87 77 69 57 43 352 360 25 74 69 77 50 32 57 75 61 68 62 74 62 50 48 46 50 47 44 56 60
182 178 179 180 158 159 169 183 194 197 191 185 187 188 189 187 189 191 191 190 186 189 187 181 187 184 188 189 182 195 199 177 176 171 163 182 216 210 206 205 200 189 178 168 159 147 142 135 129 121 114 113 109 104 100 96 91 86 80 69 58 26 352 71 64 84 81 62 70 60 49 64 46 69 57 25 65 53 43 39 38 41 39 59 63
189 182 180 179 178 175 171 180 197 197 193 183 184 186 186 185 188 187 190 190 187 190 185 188 193 192 187 198 205 190 187 180 192 212 154 170 209 208 204 200 196 191 183 173 158 152 146 135 127 121 118 115 112 105 99 97 92 83 77 68 54 30 9 330 105 103 92 77 78 85 78 62 39 73 85 68 54 55 50 43 35 30 34 52 65
188 187 183 181 187 189 191 189 190 193 190 186 181 186 184 183 188 186 186 191 188 188 184 190 192 192 201 191 206 190 181 190 201 158 179 180 207 208 202 198 195 189 183 171 162 157 144 134 131 127 124 118 113 109 102 96 89 85 79 67 54 41 9 333 105 77 79 64 51 53 65 85 52 74 78 76 75 66 59 47 42 35 37 56 67
189 191 192 193 195 202 192 194 192 191 193 186 183 187 187 186 186 187 188 187 189 190 191 187 191 198 199 193 193 164 171 189 159 168 175 194 208 209 202 199 193 187 180 173 166 155 146 141 138 133 128 123 117 112 105 98 91 86 79 69 59 38 9 330 95 95 80 83 82 54 75 35 63 69 72 69 69 72 67 56 48 46 54 64 67
198 197 198 197 203 210 199 197 198 198 200 193 192 186 189 189 186 188 194 191 190 192 190 188 191 187 182 169 152 146 157 147 148 153 170 182 211 206 198 201 195 187 180 173 169 156 149 147 144 139 133 128 121 114 109 101 99 94 85 77 66 47 329 287 65 91 129 125 86 66 46 347 102 80 64 68 62 66 69 60 61 74 69 67 74
206 204 203 202 204 209 207 199 200 199 201 199 199 193 186 192 189 189 195 197 192 190 186 183 182 176 163 147 138 136 138 135 134 143 160 177 198 206 192 207 197 188 181 175 164 155 154 153 149 143 136 130 122 114 108 109 104 100 95 87 74 283 245 83 91 84 80 56 36 83 13 4 94 92 74 71 75 73 84 91 93 82 80 80 78
202 204 205 204 209 209 207 206 204 204 203 204 201 201 186 186 188 189 192 195 190 189 182 173 165 156 149 144 143 162 172 161 151 180 149 187 188 206 184 211 197 188 182 174 163 160 159 156 152 147 141 130 117 109 106 108 105 105 103 117 278 254 68 85 100 90 80 112 75 61 360 21 71 104 105 92 98 95 97 107 98 92 82 80 77
200 204 205 204 204 208 206 209 204 207 207 207 207 202 189 185 192 188 193 192 190 186 178 184 173 169 152 152 175 189 191 192 188 196 189 197 184 192 186 215 196 184 176 171 165 163 161 158 155 149 138 128 126 125 111 93 101 113 130 238 260 98 111 99 106 96 96 89 70 25 352 17 92 95 104 108 113 122 113 104 110 104 101 92 86
203 203 203 203 204 204 207 208 207 205 208 209 208 210 197 181 201 202 197 195 193 188 195 193 190 186 174 180 192 200 199 203 201 189 207 189 202 172 185 204 187 168 167 169 168 166 162 159 153 144 141 144 163 154 143 149 137 159 208 233 159 111 108 117 111 111 81 56 96 12 357 16 128 124 125 136 123 124 125 112 105 107 101 93 91
208 200 200 199 201 205 206 210 208 206 206 209 209 211 209 192 204 206 205 204 199 194 205 207 201 197 185 193 198 200 198 204 166 164 175 180 174 164 171 175 151 146 154 161 169 168 166 161 154 148 149 180 198 175 150 164 160 182 196 168 134 137 146 146 126 122 114 62 69 5 350 315 130 154 140 129 134 132 134 126 115 111 107 105 99
206 198 198 197 200 204 203 209 209 207 206 209 210 211 209 208 204 210 207 201 206 206 212 216 213 204 205 200 199 195 192 197 178 169 189 191 188 183 176 180 183 177 161 181 177 169 171 163 155 171 194 199 202 184 168 170 179 180 171 148 140 152 140 134 137 131 129 117 71 357 353 332 161 157 148 131 136 141 139 135 128 112 107 106 96
196 202 203 201 197 201 201 203 205 206 203 206 208 210 210 214 214 212 213 213 208 209 211 215 215 208 206 210 195 196 191 193 192 190 192 190 185 184 184 188 185 184 179 189 185 171 184 175 178 193 200 192 192 178 184 174 167 177 156 147 149 155 148 135 133 131 133 125 89 6 359 344 143 138 137 147 141 144 137 148 142 125 114 106 106
206 209 207 206 198 198 201 201 201 203 206 206 210 208 211 217 218 216 215 214 212 210 210 218 216 211 202 204 200 198 198 190 186 187 192 192 189 186 185 187 185 185 183 194 185 176 189 180 184 194 193 180 169 156 148 142 134 144 123 144 140 140 135 132 128 135 125 112 88 20 358 349 119 137 142 146 143 147 143 136 127 124 117 105 100
217 214 208 205 198 199 199 199 202 200 202 206 209 212 213 216 218 218 214 218 213 218 215 218 214 211 202 205 201 199 191 188 189 189 192 194 193 187 185 187 186 186 183 195 180 180 186 184 184 184 174 165 161 156 152 151 136 133 132 129 127 128 112 112 103 117 123 122 119 32 1 0 55 114 130 131 145 140 145 151 141 138 127 105 92
227 219 209 207 204 197 197 201 200 201 200 200 206 212 214 217 215 217 217 210 218 223 219 217 218 212 207 203 202 196 185 190 192 190 189 194 191 190 187 189 184 184 183 190 179 181 185 182 180 175 175 170 160 165 153 153 164 151 136 126 136 104 100 108 110 106 117 127 123 51 10 13 47 74 113 118 121 139 142 141 145 134 113 112 105
224 222 213 211 207 197 198 199 200 199 199 199 204 209 210 212 211 215 220 208 216 223 221 217 213 209 210 207 195 192 188 193 190 191 189 192 192 190 189 186 185 184 182 187 181 183 182 179 177 175 172 167 169 162 159 151 146 128 142 131 126 127 118 108 122 131 121 110 108 104 34 18 27 55 68 89 95 122 136 148 153 146 140 132 127
224 223 218 212 205 201 200 200 199 195 196 198 201 206 207 211 208 211 214 213 211 217 218 220 213 207 209 199 189 192 192 193 191 191 189 191 193 190 191 185 185 183 181 184 179 184 182 181 176 172 170 169 165 153 171 148 150 144 117 129 128 111 115 116 121 118 123 120 125 121 82 38 27 24 55 78 87 95 128 152 163 156 144 139 142
220 221 219 211 205 204 200 202 200 196 197 201 197 202 205 206 204 207 210 209 204 212 218 221 213 211 204 185 186 189 192 193 192 190 191 189 192 189 189 188 187 180 180 181 173 182 182 177 165 171 165 164 150 153 165 153 158 154 137 129 126 128 128 129 125 136 134 122 127 137 134 96 44 30 21 65 89 87 95 82 78 101 119 134 138
216 218 214 208 209 203 205 203 201 198 199 201 200 200 201 202 202 205 208 206 207 210 218 223 216 205 194 184 186 189 190 192 192 189 188 189 190 187 189 190 187 177 175 173 163 171 171 152 147 143 151 154 144 147 146 160 152 144 149 154 152 143 140 142 137 134 137 148 144 142 136 143 113 60 40 26 65 89 89 84 83 89 97 110 127
213 208 207 208 204 201 201 202 200 201 199 203 202 201 202 200 199 202 203 203 204 205 211 219 217 201 192 186 184 188 190 191 190 187 185 189 189 187 188 188 185 172 170 159 166 174 176 166 158 167 164 164 161 157 164 168 159 148 161 149 170 156 152 156 146 145 150 158 152 140 143 149 157 136 81 52 36 63 85 83 78 75 77 86 115
216 214 201 206 204 197 188 201 193 203 196 204 204 205 200 198 197 198 200 203 203 206 210 216 217 204 196 188 185 187 188 189 188 183 185 189 188 185 188 186 178 169 167 168 171 180 181 173 166 174 163 177 168 160 170 170 164 158 162 159 171 151 153 155 147 142 165 155 157 152 156 156 164 146 146 118 69 40 52 69 78 80 82 82 94
241 222 216 208 213 204 192 199 194 201 201 201 204 205 199 199 201 197 201 197 200 204 206 206 210 208 207 197 188 185 185 187 187 185 183 190 191 187 186 183 172 166 173 169 178 180 182 176 175 177 164 179 168 165 174 172 163 165 161 169 160 156 167 160 155 160 165 163 160 161 164 160 156 164 170 157 123 64 54 60 66 65 61 72 90
252 244 231 224 221 217 198 201 199 200 205 203 206 209 207 206 205 202 201 198 202 202 202 201 204 206 212 205 188 184 181 184 188 187 186 188 193 190 185 180 168 170 173 172 181 182 176 173 172 185 178 171 170 165 170 170 161 158 148 156 139 165 174 170 167 167 161 183 160 164 168 150 139 125 179 138 130 136 76 77 72 59 45 53 86
272 263 257 246 241 230 214 202 205 199 205 205 205 208 212 211 213 210 207 207 204 204 205 203 203 203 210 209 184 184 181 186 188 187 190 189 193 193 185 175 165 172 175 175 183 181 176 172 168 180 183 174 173 169 171 166 151 153 151 151 148 175 178 173 174 163 178 178 169 171 167 155 150 184 170 160 149 142 136 110 108 86 46 45 85
307 301 277 265 260 254 233 200 199 202 203 206 200 202 208 214 214 214 209 210 208 209 209 209 206 206 213 208 185 182 180 186 186 185 188 190 193 193 189 174 167 176 176 177 180 183 174 176 170 170 183 186 176 171 166 158 142 146 150 145 150 175 171 177 170 184 188 178 176 170 165 166 166 180 158 163 168 149 158 164 173 161 106 48 75
343 335 324 293 260 257 244 217 199 205 205 204 197 198 202 206 207 210 217 214 213 213 213 215 208 215 211 203 187 181 179 185 186 186 187 190 190 193 191 165 172 177 181 181 183 180 174 174 180 168 169 170 181 166 163 148 144 141 134 129 146 166 181 165 196 194 197 180 181 177 178 175 169 171 169 180 163 157 169 182 168 156 137 119 89
27 7 342 316 269 246 232 227 204 198 199 198 202 199 200 206 213 217 221 219 218 219 225 220 218 219 213 206 193 184 181 179 185 183 189 188 192 190 188 168 172 182 187 190 184 183 176 177 172 171 168 158 170 169 158 148 144 140 148 162 171 176 178 200 199 204 202 191 188 189 185 178 177 169 177 186 154 174 172 183 179 175 155 143 141
32 30 27 360 331 294 261 247 218 199 204 204 202 204 209 212 211 219 223 227 223 218 226 224 224 222 220 212 204 194 185 182 183 186 189 189 191 191 189 174 170 182 189 186 183 179 176 181 170 159 183 175 176 174 163 151 170 172 163 176 188 183 189 201 209 207 205 203 198 193 189 186 178 176 178 166 167 175 185 179 181 173 161 169 160
32 31 18 11 7 336 296 266 240 208 209 209 205 208 211 217 222 229 225 231 228 228 231 233 226 229 226 219 212 202 194 190 186 189 189 192 193 193 192 173 172 179 180 183 184 183 181 182 181 173 168 194 183 178 175 185 163 172 163 149 194 180 185 213 210 212 201 203 197 199 195 189 180 179 174 173 174 179 180 181 168 172 172 179 168
26 20 16 14 14 7 355 326 282 234 223 210 214 218 220 221 222 238 248 241 239 232 236 235 232 227 225 217 213 209 202 199 194 192 195 193 194 197 193 182 176 180 184 183 184 189 182 185 188 190 174 168 192 179 194 199 182 160 176 196 176 182 208 211 193 200 193 197 193 199 195 192 179 180 182 187 184 173 170 172 169 173 175 183 176
24 17 13 14 10 6 2 351 328 295 242 223 202 217 210 202 201 203 216 260 257 256 226 226 221 215 214 212 210 202 203 202 198 196 194 198 200 204 201 188 173 181 184 189 192 191 188 191 191 191 188 179 185 165 189 201 214 199 162 150 178 204 219 175 155 175 175 189 198 200 193 193 181 183 190 192 182 176 163 163 178 170 175 173 185
24 16 16 17 15 13 8 1 353 341 322 240 207 209 209 207 201 207 219 225 237 231 234 237 226 218 220 220 215 205 202 204 204 200 199 195 199 205 206 197 181 182 188 197 197 188 194 194 192 196 196 200 187 146 179 206 217 227 256 264 21 191 182 141 149 183 167 200 189 199 198 197 190 186 199 192 180 181 179 172 177 174 173 182 179
16 11 17 20 20 18 12 8 6 1 13 334 222 215 217 222 226 233 243 254 259 256 251 247 245 237 225 218 214 210 208 207 209 207 204 201 202 205 206 206 193 188 189 198 198 199 196 195 189 199 201 197 187 188 184 180 198 239 234 213 179 183 280 145 191 114 180 194 203 188 204 197 199 199 203 203 180 191 185 175 176 176 172 184 179
9 12 17 16 17 17 16 15 11 4 12 344 313 232 243 233 240 241 245 254 261 275 285 286 268 253 242 218 209 211 208 210 213 212 209 206 202 206 209 212 207 202 195 204 204 201 191 194 196 199 200 201 199 198 186 179 179 207 212 186 189 211 277 315 277 192 160 158 193 199 201 194 199 211 210 204 194 193 186 182 175 177 175 182 184
19 15 14 12 12 13 18 21 18 13 4 353 340 280 276 304 273 256 252 256 266 273 278 274 273 253 240 224 217 216 209 211 214 216 212 213 207 211 208 209 207 210 206 208 208 206 200 186 191 193 201 203 205 205 194 190 193 197 183 210 205 203 213 232 238 169 199 153 175 180 191 182 202 214 211 208 202 190 193 182 178 175 185 174 183
24 22 19 15 13 12 18 21 19 14 7 360 353 354 357 307 278 281 285 285 286 284 275 275 272 257 243 227 219 218 216 211 213 216 218 216 214 209 215 215 214 211 207 209 208 211 210 204 197 199 204 208 207 207 208 197 198 201 194 189 197 200 212 214 229 213 252 237 174 187 178 175 194 217 197 202 199 188 184 182 170 179 186 179 183
27 22 18 17 15 16 16 20 17 11 8 4 1 359 353 335 312 322 315 301 296 287 282 277 273 270 264 247 229 226 220 217 210 215 216 216 218 213 215 216 215 217 218 218 214 211 207 201 198 201 205 208 208 207 211 208 195 204 198 199 198 194 197 199 202 204 201 199 219 176 177 185 199 184 194 194 189 187 178 177 180 181 188 187 182